Location: Bovenkerk
(52.2915°N, 4.8336°E)
Time: 02:13:13
(UTC+00:00)

STARLINK-1192 - Pass Details

Date: 09 April 2020
Orbit: 549 x 550 km, 53.0° (Epoch: 03 June)

Event Time Altitude Azimuth Distance (km) Brightness Sun altitude
Rises 19:43:41 0° 286° (WNW) 2,729 9.0 -11.3°
Reaches altitude 10° 19:45:56 10° 283° (WNW) 1,833 7.6 -11.6°
Maximum altitude 19:50:03 62° 203° (SSW) 627 3.8 -12.2°
Enters shadow 19:52:49 20° 127° (SE) 1,317 4.9 -12.6°
